MAS612 WMKK-WIII

Flight info

Callsign MAS612
Flight time 1h 39m
Altitude 41000
Route MITOS1E MITOS M630 BOBAG P501 ANITO B470 BUNIK
Aircraft A333/H-SDE3GHIJ2J3J5M1RVWXY/LB2D1

Departure

Time 2026-05-04 19:04
Airport Kuala Lumpur International Airport (WMKK)

Arrival

Time 2026-05-04 20:44
Airport Soekarno-Hatta International Airport (WIII)
Time Latitude Longitude Altitude Speed Heading
2026-05-04 18:45 2.74533 101.71570 77 ft 0 kts 326°
2026-05-04 18:56 2.74513 101.71583 66 ft 4 kts 326°
2026-05-04 18:56 2.74491 101.71599 66 ft 4 kts 326°
2026-05-04 18:56 2.74473 101.71610 66 ft 4 kts 326°
2026-05-04 18:56 2.74452 101.71624 66 ft 4 kts 343°
2026-05-04 18:57 2.74437 101.71624 66 ft 4 kts 75°
2026-05-04 18:57 2.74433 101.71598 66 ft 4 kts 77°
2026-05-04 18:57 2.74429 101.71585 66 ft 0 kts 56°
2026-05-04 19:00 2.74435 101.71594 76 ft 8 kts 56°
2026-05-04 19:01 2.74489 101.71673 67 ft 15 kts 56°
2026-05-04 19:01 2.74551 101.71766 67 ft 16 kts 56°
2026-05-04 19:01 2.74616 101.71863 66 ft 17 kts 56°
2026-05-04 19:01 2.74681 101.71961 85 ft 13 kts 57°
2026-05-04 19:02 2.74719 101.72024 88 ft 8 kts 69°
2026-05-04 19:02 2.74699 101.72066 89 ft 9 kts 141°
2026-05-04 19:02 2.74680 101.72119 88 ft 8 kts 77°
2026-05-04 19:02 2.74709 101.72171 87 ft 10 kts 57°
2026-05-04 19:03 2.74753 101.72231 88 ft 8 kts 37°
2026-05-04 19:03 2.74805 101.72227 88 ft 8 kts 327°
2026-05-04 19:03 2.74857 101.72192 87 ft 19 kts 325°
2026-05-04 19:03 2.75156 101.71991 84 ft 84 kts 326°
2026-05-04 19:04 2.75803 101.71559 67 ft 138 kts 326°
2026-05-04 19:04 2.76700 101.70955 314 ft 161 kts 327°
2026-05-04 19:04 2.77618 101.70341 961 ft 157 kts 326°
2026-05-04 19:04 2.78522 101.69726 1606 ft 157 kts 326°
2026-05-04 19:05 2.79453 101.69119 2055 ft 166 kts 328°
2026-05-04 19:05 2.80562 101.68609 2319 ft 187 kts 341°
2026-05-04 19:05 2.81882 101.68159 2536 ft 214 kts 341°
2026-05-04 19:05 2.83376 101.67648 2810 ft 240 kts 341°
2026-05-04 19:06 2.85012 101.67076 3255 ft 256 kts 340°
2026-05-04 19:06 2.86711 101.66471 3898 ft 263 kts 340°
2026-05-04 19:06 2.88477 101.65927 4606 ft 269 kts 349°
2026-05-04 19:06 2.90346 101.65965 5338 ft 273 kts 15°
2026-05-04 19:07 2.92012 101.66855 6114 ft 275 kts 43°
2026-05-04 19:07 2.93132 101.68408 6868 ft 278 kts 62°
2026-05-04 19:07 2.93955 101.70167 7668 ft 280 kts 66°
2026-05-04 19:07 2.94595 101.72018 8450 ft 284 kts 78°
2026-05-04 19:08 2.94638 101.73991 9267 ft 287 kts 100°
2026-05-04 19:08 2.93920 101.75818 10054 ft 291 kts 123°
2026-05-04 19:08 2.92577 101.77389 10496 ft 307 kts 134°
2026-05-04 19:08 2.90965 101.78898 10801 ft 327 kts 137°
2026-05-04 19:09 2.89238 101.80468 11174 ft 342 kts 137°
2026-05-04 19:09 2.87467 101.82094 11727 ft 349 kts 136°
2026-05-04 19:09 2.85674 101.83756 12377 ft 353 kts 136°
2026-05-04 19:09 2.83870 101.85439 13011 ft 357 kts 136°
2026-05-04 19:10 2.82046 101.87146 13659 ft 361 kts 136°
2026-05-04 19:10 2.80216 101.88863 14213 ft 364 kts 136°
2026-05-04 19:10 2.78359 101.90606 14798 ft 366 kts 136°
2026-05-04 19:10 2.76495 101.92357 15383 ft 368 kts 136°
2026-05-04 19:11 2.74645 101.94095 15959 ft 371 kts 136°
2026-05-04 19:11 2.72735 101.95889 16524 ft 373 kts 136°
2026-05-04 19:11 2.70843 101.97667 17069 ft 376 kts 135°
2026-05-04 19:11 2.68926 101.99469 17613 ft 378 kts 135°
2026-05-04 19:12 2.67029 102.01253 18124 ft 381 kts 135°
2026-05-04 19:12 2.63139 102.04907 18992 ft 387 kts 135°
2026-05-04 19:12 2.61131 102.06712 19420 ft 390 kts 140°
2026-05-04 19:13 2.58828 102.08174 19821 ft 395 kts 153°
2026-05-04 19:13 2.56205 102.09037 20232 ft 401 kts 168°
2026-05-04 19:13 2.53427 102.09299 20657 ft 405 kts 176°
2026-05-04 19:13 2.50580 102.09359 21071 ft 408 kts 177°
2026-05-04 19:14 2.47735 102.09390 21477 ft 411 kts 178°
2026-05-04 19:14 2.44865 102.09427 21883 ft 413 kts 177°
2026-05-04 19:14 2.41984 102.09470 22278 ft 416 kts 177°
2026-05-04 19:14 2.39077 102.09519 22676 ft 419 kts 177°
2026-05-04 19:15 2.36154 102.09570 23072 ft 421 kts 177°
2026-05-04 19:15 2.34207 102.09605 23327 ft 423 kts 177°
2026-05-04 19:15 2.30267 102.09678 23771 ft 426 kts 177°
2026-05-04 19:15 2.28248 102.09715 23990 ft 428 kts 177°
2026-05-04 19:16 2.25305 102.09770 24308 ft 430 kts 177°
2026-05-04 19:16 2.22305 102.09826 24640 ft 432 kts 177°
2026-05-04 19:16 2.19293 102.09882 24965 ft 434 kts 177°
2026-05-04 19:16 2.16264 102.09939 25296 ft 436 kts 177°
2026-05-04 19:17 2.13226 102.09996 25625 ft 438 kts 177°
2026-05-04 19:17 2.10175 102.10053 25954 ft 440 kts 177°
2026-05-04 19:17 2.07112 102.10114 26278 ft 441 kts 176°
2026-05-04 19:17 2.04052 102.10377 26601 ft 442 kts 169°
2026-05-04 19:18 2.01072 102.11119 26922 ft 442 kts 159°
2026-05-04 19:18 1.98274 102.12380 27235 ft 442 kts 149°
2026-05-04 19:18 1.95745 102.14129 27565 ft 443 kts 139°
2026-05-04 19:18 1.93572 102.16307 27856 ft 443 kts 128°
2026-05-04 19:19 1.91711 102.18771 28144 ft 445 kts 124°
2026-05-04 19:19 1.89951 102.21324 28464 ft 447 kts 123°
2026-05-04 19:19 1.88238 102.23923 28755 ft 449 kts 122°
2026-05-04 19:19 1.86532 102.26546 29049 ft 451 kts 122°
2026-05-04 19:20 1.84817 102.29177 29339 ft 453 kts 122°
2026-05-04 19:20 1.83088 102.31810 29623 ft 454 kts 123°
2026-05-04 19:20 1.81339 102.34452 29897 ft 456 kts 123°
2026-05-04 19:20 1.79575 102.37102 30126 ft 458 kts 123°
2026-05-04 19:21 1.77799 102.39758 30354 ft 460 kts 123°
2026-05-04 19:21 1.76016 102.42421 30556 ft 462 kts 123°
2026-05-04 19:21 1.74225 102.45095 30760 ft 464 kts 123°
2026-05-04 19:21 1.72427 102.47779 30980 ft 466 kts 123°
2026-05-04 19:22 1.70623 102.50473 31200 ft 467 kts 123°
2026-05-04 19:22 1.68815 102.53173 31425 ft 469 kts 123°
2026-05-04 19:22 1.66998 102.55887 31624 ft 470 kts 123°
2026-05-04 19:22 1.65180 102.58603 31830 ft 472 kts 123°
2026-05-04 19:23 1.63351 102.61337 32075 ft 472 kts 123°
2026-05-04 19:23 1.61530 102.64057 32388 ft 471 kts 123°
2026-05-04 19:23 1.59709 102.66776 32704 ft 470 kts 123°
2026-05-04 19:23 1.57891 102.69492 32983 ft 469 kts 123°
2026-05-04 19:24 1.56077 102.72201 33273 ft 469 kts 123°
2026-05-04 19:24 1.54288 102.74873 33577 ft 468 kts 123°
2026-05-04 19:24 1.52478 102.77576 33864 ft 468 kts 123°
2026-05-04 19:24 1.50676 102.80272 34142 ft 466 kts 123°
2026-05-04 19:25 1.48873 102.82966 34411 ft 466 kts 123°
2026-05-04 19:25 1.47073 102.85655 34685 ft 464 kts 123°
2026-05-04 19:25 1.45280 102.88330 34956 ft 463 kts 123°
2026-05-04 19:25 1.43488 102.91006 35197 ft 463 kts 123°
2026-05-04 19:26 1.41696 102.93681 35431 ft 463 kts 123°
2026-05-04 19:26 1.39905 102.96354 35648 ft 463 kts 123°
2026-05-04 19:26 1.38117 102.99024 35875 ft 463 kts 123°
2026-05-04 19:26 1.36329 103.01699 36116 ft 462 kts 123°
2026-05-04 19:27 1.34542 103.04374 36350 ft 462 kts 123°
2026-05-04 19:27 1.32758 103.07045 36583 ft 462 kts 123°
2026-05-04 19:27 1.30976 103.09715 36816 ft 462 kts 123°
2026-05-04 19:27 1.29196 103.12380 37061 ft 461 kts 123°
2026-05-04 19:28 1.27414 103.15047 37276 ft 461 kts 123°
2026-05-04 19:28 1.25634 103.17710 37511 ft 461 kts 123°
2026-05-04 19:28 1.23855 103.20373 37728 ft 461 kts 123°
2026-05-04 19:28 1.22077 103.23035 37956 ft 460 kts 123°
2026-05-04 19:29 1.20298 103.25698 38176 ft 460 kts 123°
2026-05-04 19:29 1.18523 103.28354 38376 ft 460 kts 123°
2026-05-04 19:29 1.16750 103.31007 38601 ft 459 kts 123°
2026-05-04 19:29 1.14977 103.33661 38760 ft 459 kts 123°
2026-05-04 19:30 1.13203 103.36317 38858 ft 460 kts 123°
2026-05-04 19:30 1.09649 103.41635 38874 ft 459 kts 123°
2026-05-04 19:31 1.06123 103.46913 38871 ft 455 kts 123°
2026-05-04 19:31 1.02174 103.51847 38872 ft 456 kts 132°
2026-05-04 19:32 0.97809 103.56471 38873 ft 458 kts 133°
2026-05-04 19:32 0.93362 103.61043 38873 ft 459 kts 134°
2026-05-04 19:33 0.88914 103.65608 38871 ft 459 kts 133°
2026-05-04 19:33 0.84506 103.70150 38870 ft 458 kts 133°
2026-05-04 19:34 0.80078 103.74724 38873 ft 458 kts 133°
2026-05-04 19:34 0.75642 103.79308 38874 ft 458 kts 133°
2026-05-04 19:35 0.71209 103.83891 38870 ft 458 kts 133°
2026-05-04 19:35 0.66779 103.88466 38868 ft 458 kts 134°
2026-05-04 19:36 0.62346 103.93044 38871 ft 458 kts 134°
2026-05-04 19:36 0.57916 103.97620 38871 ft 458 kts 134°
2026-05-04 19:37 0.53481 104.02200 38869 ft 458 kts 134°
2026-05-04 19:37 0.49046 104.06779 38871 ft 458 kts 134°
2026-05-04 19:38 0.44612 104.11355 38872 ft 458 kts 134°
2026-05-04 19:38 0.40180 104.15931 38869 ft 458 kts 134°
2026-05-04 19:39 0.35743 104.20511 38868 ft 458 kts 134°
2026-05-04 19:39 0.31313 104.25088 38871 ft 461 kts 133°
2026-05-04 19:40 0.26859 104.29687 38870 ft 464 kts 133°
2026-05-04 19:40 0.22372 104.34318 38868 ft 464 kts 134°
2026-05-04 19:41 0.17883 104.38952 38868 ft 464 kts 133°
2026-05-04 19:41 0.13394 104.43587 38868 ft 464 kts 133°
2026-05-04 19:42 0.08912 104.48215 38867 ft 464 kts 133°
2026-05-04 19:42 0.04426 104.52847 38868 ft 464 kts 134°
2026-05-04 19:43 -0.00059 104.57478 38864 ft 464 kts 134°
2026-05-04 19:43 -0.04538 104.62103 38867 ft 462 kts 134°
2026-05-04 19:44 -0.09000 104.66710 38867 ft 461 kts 134°
2026-05-04 19:44 -0.13456 104.71311 38868 ft 461 kts 134°
2026-05-04 19:45 -0.17914 104.75914 38867 ft 461 kts 134°
2026-05-04 19:45 -0.22374 104.80519 38865 ft 461 kts 134°
2026-05-04 19:46 -0.26840 104.85110 38864 ft 461 kts 136°
2026-05-04 19:46 -0.31846 104.89043 38865 ft 461 kts 144°
2026-05-04 19:47 -0.37128 104.92683 38866 ft 461 kts 146°
2026-05-04 19:47 -0.42466 104.96265 38864 ft 464 kts 146°
2026-05-04 19:48 -0.47830 104.99869 38866 ft 465 kts 145°
2026-05-04 19:48 -0.53186 105.03485 38865 ft 465 kts 145°
2026-05-04 19:49 -0.58539 105.07108 38865 ft 465 kts 145°
2026-05-04 19:49 -0.63887 105.10727 38865 ft 465 kts 145°
2026-05-04 19:50 -0.69241 105.14350 38865 ft 465 kts 145°
2026-05-04 19:50 -0.74590 105.17970 38865 ft 465 kts 146°
2026-05-04 19:51 -0.79936 105.21587 38864 ft 463 kts 146°
2026-05-04 19:51 -0.85274 105.25200 38865 ft 463 kts 146°
2026-05-04 19:52 -0.90603 105.28807 38866 ft 463 kts 146°
2026-05-04 19:52 -0.95942 105.32420 38865 ft 464 kts 145°
2026-05-04 19:53 -1.01252 105.36012 38859 ft 465 kts 145°
2026-05-04 19:53 -1.06649 105.39662 38861 ft 465 kts 145°
2026-05-04 19:54 -1.11963 105.43255 38859 ft 465 kts 145°
2026-05-04 19:54 -1.17328 105.46885 38862 ft 466 kts 145°
2026-05-04 19:55 -1.22699 105.50520 38859 ft 466 kts 145°
2026-05-04 19:55 -1.28072 105.54157 38859 ft 466 kts 146°
2026-05-04 19:56 -1.33442 105.57791 38864 ft 466 kts 145°
2026-05-04 19:56 -1.38813 105.61428 38862 ft 466 kts 145°
2026-05-04 19:57 -1.44187 105.65066 38861 ft 466 kts 145°
2026-05-04 19:57 -1.49559 105.68704 38865 ft 467 kts 145°
2026-05-04 19:58 -1.54950 105.72356 38864 ft 469 kts 145°
2026-05-04 19:58 -1.60352 105.76013 38865 ft 469 kts 145°
2026-05-04 19:59 -1.65757 105.79672 38865 ft 469 kts 145°
2026-05-04 19:59 -1.71160 105.83331 38865 ft 469 kts 145°
2026-05-04 20:00 -1.76563 105.86989 38866 ft 469 kts 145°
2026-05-04 20:00 -1.81965 105.90648 38867 ft 469 kts 145°
2026-05-04 20:01 -1.87381 105.94282 38869 ft 469 kts 148°
2026-05-04 20:01 -1.93332 105.96886 38859 ft 468 kts 164°
2026-05-04 20:02 -1.99662 105.98408 38866 ft 468 kts 167°
2026-05-04 20:02 -2.06026 105.99825 38867 ft 469 kts 167°
2026-05-04 20:03 -2.12379 106.01237 38865 ft 467 kts 167°
2026-05-04 20:03 -2.18721 106.02648 38865 ft 467 kts 167°
2026-05-04 20:04 -2.25059 106.04058 38865 ft 467 kts 167°
2026-05-04 20:04 -2.30325 106.05230 38864 ft 467 kts 167°
2026-05-04 20:05 -2.36659 106.06640 38862 ft 467 kts 167°
2026-05-04 20:05 -2.43001 106.08052 38863 ft 467 kts 167°
2026-05-04 20:06 -2.49335 106.09462 38862 ft 467 kts 167°
2026-05-04 20:06 -2.55675 106.10874 38859 ft 467 kts 167°
2026-05-04 20:07 -2.62009 106.12285 38860 ft 466 kts 167°
2026-05-04 20:07 -2.68335 106.13694 38860 ft 466 kts 167°
2026-05-04 20:08 -2.74659 106.15103 38858 ft 466 kts 167°
2026-05-04 20:08 -2.80983 106.16512 38857 ft 466 kts 167°
2026-05-04 20:09 -2.87309 106.17921 38856 ft 466 kts 167°
2026-05-04 20:09 -2.93634 106.19331 38850 ft 466 kts 167°
2026-05-04 20:10 -2.99955 106.20740 38856 ft 465 kts 166°
2026-05-04 20:10 -3.06276 106.22149 38854 ft 465 kts 166°
2026-05-04 20:11 -3.12597 106.23558 38856 ft 465 kts 166°
2026-05-04 20:11 -3.18914 106.24967 38854 ft 465 kts 166°
2026-05-04 20:12 -3.25234 106.26376 38852 ft 465 kts 166°
2026-05-04 20:12 -3.31554 106.27786 38854 ft 465 kts 166°
2026-05-04 20:13 -3.37826 106.29185 38853 ft 465 kts 166°
2026-05-04 20:13 -3.44146 106.30595 38853 ft 465 kts 166°
2026-05-04 20:14 -3.50466 106.32005 38853 ft 465 kts 166°
2026-05-04 20:14 -3.56787 106.33415 38853 ft 465 kts 166°
2026-05-04 20:15 -3.63100 106.34827 38851 ft 465 kts 166°
2026-05-04 20:15 -3.69424 106.36241 38855 ft 466 kts 166°
2026-05-04 20:16 -3.75758 106.37655 38862 ft 467 kts 166°
2026-05-04 20:16 -3.82103 106.39071 38857 ft 467 kts 166°
2026-05-04 20:17 -3.88444 106.40487 38857 ft 467 kts 166°
2026-05-04 20:17 -3.94767 106.41898 38620 ft 462 kts 166°
2026-05-04 20:17 -3.97880 106.42593 38378 ft 455 kts 166°
2026-05-04 20:18 -4.00955 106.43280 37961 ft 452 kts 166°
2026-05-04 20:18 -4.04035 106.43968 37390 ft 454 kts 166°
2026-05-04 20:18 -4.07117 106.44658 36865 ft 454 kts 166°
2026-05-04 20:18 -4.10199 106.45346 36338 ft 454 kts 166°
2026-05-04 20:19 -4.13282 106.46034 35778 ft 455 kts 166°
2026-05-04 20:19 -4.16379 106.46726 35201 ft 457 kts 166°
2026-05-04 20:19 -4.19497 106.47422 34577 ft 459 kts 166°
2026-05-04 20:19 -4.22622 106.48121 33925 ft 462 kts 166°
2026-05-04 20:20 -4.25723 106.48814 33151 ft 466 kts 166°
2026-05-04 20:20 -4.28897 106.49523 32418 ft 469 kts 166°
2026-05-04 20:20 -4.32086 106.50236 31675 ft 471 kts 166°
2026-05-04 20:20 -4.35292 106.50951 30981 ft 472 kts 166°
2026-05-04 20:21 -4.38439 106.51653 30498 ft 468 kts 166°
2026-05-04 20:21 -4.41641 106.52369 29990 ft 464 kts 166°
2026-05-04 20:21 -4.47866 106.53760 28836 ft 457 kts 166°
2026-05-04 20:22 -4.51000 106.54461 28303 ft 453 kts 166°
2026-05-04 20:22 -4.54023 106.55135 27791 ft 449 kts 166°
2026-05-04 20:22 -4.57056 106.55813 27282 ft 445 kts 166°
2026-05-04 20:22 -4.60071 106.56487 26733 ft 442 kts 166°
2026-05-04 20:23 -4.63067 106.57156 26203 ft 439 kts 166°
2026-05-04 20:23 -4.66040 106.57822 25682 ft 436 kts 166°
2026-05-04 20:23 -4.68988 106.58481 25175 ft 433 kts 166°
2026-05-04 20:23 -4.71923 106.59138 24652 ft 431 kts 166°
2026-05-04 20:24 -4.74837 106.59790 24127 ft 428 kts 166°
2026-05-04 20:24 -4.77733 106.60438 23630 ft 425 kts 165°
2026-05-04 20:24 -4.80612 106.61083 23159 ft 421 kts 165°
2026-05-04 20:24 -4.83420 106.61711 23043 ft 406 kts 165°
2026-05-04 20:25 -4.86112 106.62402 22825 ft 394 kts 159°
2026-05-04 20:25 -4.88656 106.63418 22206 ft 393 kts 154°
2026-05-04 20:25 -4.91136 106.64550 21748 ft 390 kts 153°
2026-05-04 20:25 -4.93576 106.65681 21321 ft 385 kts 153°
2026-05-04 20:26 -4.96005 106.66804 20862 ft 382 kts 154°
2026-05-04 20:26 -4.98416 106.67914 20416 ft 379 kts 154°
2026-05-04 20:26 -5.00802 106.69009 19994 ft 376 kts 154°
2026-05-04 20:26 -5.03175 106.70097 19551 ft 373 kts 154°
2026-05-04 20:27 -5.05530 106.71175 19120 ft 371 kts 154°
2026-05-04 20:27 -5.07866 106.72244 18708 ft 368 kts 154°
2026-05-04 20:27 -5.10188 106.73307 18260 ft 366 kts 154°
2026-05-04 20:27 -5.12496 106.74363 17784 ft 363 kts 154°
2026-05-04 20:28 -5.14784 106.75410 17353 ft 359 kts 154°
2026-05-04 20:28 -5.17044 106.76443 16985 ft 354 kts 154°
2026-05-04 20:28 -5.19273 106.77454 16861 ft 351 kts 154°
2026-05-04 20:28 -5.21499 106.78462 16850 ft 352 kts 154°
2026-05-04 20:29 -5.23736 106.79475 16851 ft 353 kts 154°
2026-05-04 20:29 -5.25972 106.80487 16853 ft 352 kts 154°
2026-05-04 20:29 -5.28204 106.81497 16853 ft 352 kts 154°
2026-05-04 20:29 -5.30439 106.82509 16852 ft 350 kts 154°
2026-05-04 20:30 -5.32581 106.83477 16849 ft 335 kts 154°
2026-05-04 20:30 -5.34654 106.84414 16850 ft 320 kts 154°
2026-05-04 20:30 -5.36660 106.85322 16855 ft 314 kts 154°
2026-05-04 20:30 -5.38648 106.86223 16856 ft 313 kts 154°
2026-05-04 20:31 -5.40637 106.87125 16801 ft 315 kts 154°
2026-05-04 20:31 -5.42663 106.88044 16225 ft 324 kts 154°
2026-05-04 20:31 -5.44720 106.88976 15625 ft 322 kts 154°
2026-05-04 20:31 -5.46759 106.89836 15035 ft 316 kts 161°
2026-05-04 20:32 -5.48899 106.90147 14544 ft 308 kts 176°
2026-05-04 20:32 -5.51039 106.90158 13887 ft 307 kts 179°
2026-05-04 20:32 -5.53164 106.90115 13192 ft 304 kts 180°
2026-05-04 20:32 -5.55267 106.90069 12511 ft 301 kts 179°
2026-05-04 20:33 -5.57348 106.90028 11846 ft 298 kts 179°
2026-05-04 20:33 -5.59412 106.89992 11188 ft 295 kts 179°
2026-05-04 20:33 -5.61457 106.89959 10542 ft 292 kts 179°
2026-05-04 20:33 -5.63481 106.89927 9903 ft 290 kts 178°
2026-05-04 20:34 -5.65489 106.89897 9220 ft 287 kts 179°
2026-05-04 20:34 -5.67480 106.89867 8558 ft 284 kts 179°
2026-05-04 20:34 -5.69446 106.89838 7914 ft 281 kts 179°
2026-05-04 20:34 -5.71396 106.89808 7296 ft 279 kts 178°
2026-05-04 20:35 -5.73308 106.89770 6825 ft 272 kts 178°
2026-05-04 20:35 -5.75193 106.89731 6430 ft 271 kts 179°
2026-05-04 20:35 -5.77080 106.89691 6103 ft 272 kts 179°
2026-05-04 20:35 -5.78971 106.89652 5776 ft 271 kts 179°
2026-05-04 20:36 -5.80843 106.89612 5454 ft 269 kts 179°
2026-05-04 20:36 -5.82705 106.89572 5137 ft 266 kts 179°
2026-05-04 20:36 -5.84555 106.89535 4836 ft 265 kts 179°
2026-05-04 20:36 -5.86387 106.89496 4517 ft 263 kts 179°
2026-05-04 20:37 -5.88212 106.89456 4199 ft 262 kts 179°
2026-05-04 20:37 -5.90025 106.89418 3920 ft 260 kts 179°
2026-05-04 20:37 -5.91808 106.89380 3714 ft 253 kts 179°
2026-05-04 20:37 -5.93562 106.89344 3445 ft 251 kts 179°
2026-05-04 20:38 -5.95297 106.89279 3184 ft 249 kts 185°
2026-05-04 20:38 -5.96884 106.88648 3013 ft 246 kts 212°
2026-05-04 20:38 -5.98218 106.87626 2941 ft 235 kts 218°
2026-05-04 20:38 -5.99434 106.86603 2836 ft 222 kts 218°
2026-05-04 20:39 -6.00589 106.85629 2706 ft 212 kts 218°
2026-05-04 20:39 -6.01696 106.84701 2425 ft 210 kts 217°
2026-05-04 20:39 -6.02812 106.83774 2207 ft 205 kts 217°
2026-05-04 20:39 -6.03896 106.82876 2084 ft 195 kts 217°
2026-05-04 20:40 -6.04785 106.81915 2001 ft 186 kts 234°
2026-05-04 20:40 -6.05358 106.80774 1992 ft 182 kts 246°
2026-05-04 20:40 -6.05827 106.79591 1995 ft 182 kts 247°
2026-05-04 20:40 -6.06296 106.78409 1995 ft 182 kts 247°
2026-05-04 20:41 -6.06769 106.77229 1994 ft 182 kts 246°
2026-05-04 20:41 -6.07242 106.76059 1938 ft 178 kts 246°
2026-05-04 20:41 -6.07701 106.74920 1717 ft 173 kts 247°
2026-05-04 20:41 -6.08135 106.73828 1473 ft 163 kts 247°
2026-05-04 20:42 -6.08542 106.72807 1272 ft 152 kts 247°
2026-05-04 20:42 -6.08922 106.71855 1050 ft 142 kts 246°
2026-05-04 20:42 -6.09282 106.70950 879 ft 138 kts 246°
2026-05-04 20:42 -6.09646 106.70065 712 ft 137 kts 244°
2026-05-04 20:43 -6.09998 106.69180 556 ft 136 kts 247°
2026-05-04 20:43 -6.10338 106.68300 368 ft 134 kts 245°
2026-05-04 20:43 -6.10685 106.67432 216 ft 134 kts 246°
2026-05-04 20:43 -6.11031 106.66566 54 ft 131 kts 245°
2026-05-04 20:44 -6.11315 106.65858 43 ft 73 kts 248°
2026-05-04 20:44 -6.11446 106.65534 43 ft 45 kts 248°
2026-05-04 20:44 -6.11556 106.65256 45 ft 35 kts 249°
2026-05-04 20:44 -6.11661 106.65069 46 ft 27 kts 228°
2026-05-04 20:45 -6.11784 106.64979 44 ft 15 kts 195°
2026-05-04 20:45 -6.11828 106.64978 43 ft 1 kts 164°
2026-05-04 20:45 -6.11841 106.65010 43 ft 10 kts 99°
2026-05-04 20:45 -6.11815 106.65090 43 ft 13 kts 67°
2026-05-04 20:46 -6.11762 106.65220 43 ft 21 kts 68°
2026-05-04 20:46 -6.11709 106.65353 43 ft 20 kts 68°
2026-05-04 20:46 -6.11653 106.65490 42 ft 22 kts 67°
2026-05-04 20:46 -6.11594 106.65637 42 ft 23 kts 69°
2026-05-04 20:47 -6.11537 106.65785 41 ft 23 kts 69°
2026-05-04 20:47 -6.11509 106.65869 42 ft 7 kts 88°
2026-05-04 20:47 -6.11546 106.65918 42 ft 11 kts 149°
2026-05-04 20:47 -6.11627 106.65954 42 ft 14 kts 157°
2026-05-04 20:48 -6.11718 106.65991 42 ft 14 kts 156°
2026-05-04 20:48 -6.11796 106.66025 42 ft 5 kts 153°
2026-05-04 20:48 -6.11832 106.66046 42 ft 11 kts 155°
2026-05-04 20:48 -6.11884 106.66067 42 ft 5 kts 158°
2026-05-04 20:49 -6.11903 106.66075 42 ft 2 kts 158°
2026-05-04 20:49 -6.11906 106.66076 42 ft 0 kts 158°